{"data":{"norad_id":33492,"intl_designator":"2009-002A","name":"GOSAT (IBUKI)","alt_names":[],"object_type":"PAYLOAD","status":"ACTIVE","operator":null,"country":"JPN","launch_date":"2009-01-23","launch_site_code":"TANSC","launch_vehicle":null,"mission":null,"orbit_class":"UNKNOWN","rcs_meters":4.6494,"size_class":null,"mass_kg":null,"dimensions":null,"purposes":["earth_obs"],"wikipedia_slug":null,"has_3d_model":false,"image_url":null,"decayed_at":null,"tle_current":{"epoch":"2026-05-25T03:51:47.937600Z","epoch_age_seconds":58379,"freshness":"FRESH","line1":"1 33492U 09002A   26145.16097150 -.00000044  00000+0  75129-6 0  9997","line2":"2 33492  98.0870 256.5336 0001532  97.7588 262.3790 14.67537886928081","mean_motion":14.67537886,"eccentricity":0.0001532,"inclination_deg":98.087,"raan_deg":256.5336,"arg_perigee_deg":97.7588,"mean_anomaly_deg":262.379,"bstar":7.5129e-7,"rev_number":92808,"period_min":98.123531510654,"perigee_km":667.85946723206,"apogee_km":670.01869134275,"semimajor_km":7047.0760792874,"source":"CELESTRAK","updated_at":"2026-05-25T13:38:12.776028Z"}}}